Location: Brookfield Center
(41.2406°N, 80.5579°W)
Time: 15:59:22
(UTC+00:00)

Cosmos 2297 Rocket - Pass Details

Date: 18 January 2020
Orbit: 838 x 845 km, 71.0° (Epoch: 19 February)

Event Time Altitude Azimuth Distance (km) Brightness Sun altitude
Exits shadow 11:11:14 28° 276° (W) 1,531 3.0 -17.3°
Maximum altitude 11:12:15 30° 257° (WSW) 1,472 3.0 -17.1°
Drops below altitude 10° 11:17:05 10° 198° (SSW) 2,457 4.6 -16.2°
Sets 11:19:47 0° 187° (S) 3,387 5.4 -15.7°
